RH
94 90 88 85 80 78 72 60 52 42 36 34 29 27 25 28 33 34 36 40 40 41 40 39 34 35 35 24 21 20 20 24 31 31 34 42 42 40
93 93 88 84 79 73 64 53 45 40 36 32 30 30 30 33 37 41 50 52 46 45 48 46 40 38 39 30 27 23 24 23 28 33 38 41 46 45
94 90 89 81 71 67 52 43 40 38 37 32 32 32 34 36 37 39 45 49 53 43 60 61 45 44 45 34 33 31 30 31 32 33 35 39 40 43
90 81 79 73 63 51 47 42 38 35 40 39 39 41 41 44 47 48 43 45 48 43 66 57 49 49 47 41 42 40 40 40 41 41 38 41 38 44
76 71 66 58 48 46 39 37 36 38 44 44 40 39 41 46 48 45 46 50 47 62 67 64 58 53 58 51 53 51 48 50 52 49 45 41 38 44
71 60 51 46 42 34 33 34 35 35 37 38 39 40 46 43 42 42 44 52 67 73 71 73 70 66 64 61 64 58 56 59 58 55 50 44 41 44
53 49 46 39 35 37 36 34 33 32 34 38 38 40 45 42 47 41 51 70 74 78 82 74 71 68 71 71 66 61 63 66 62 59 54 43 44 47
46 42 35 33 34 33 34 33 34 38 42 45 48 55 54 56 58 48 56 77 79 76 79 73 73 70 69 68 64 68 69 65 62 58 50 44 50 53
42 37 37 37 35 35 36 36 35 38 44 48 52 52 55 55 64 49 54 72 70 72 75 67 72 67 69 66 72 70 69 66 65 62 50 50 55 58
41 42 40 36 35 34 31 30 32 34 37 46 46 46 54 48 71 61 62 68 70 72 78 68 69 64 73 78 77 70 64 66 69 64 55 54 59 60
42 38 33 31 29 27 28 27 25 23 21 25 30 37 44 44 75 70 71 79 72 74 75 74 68 75 82 80 75 71 68 67 69 64 59 61 65 64
37 35 32 29 27 28 32 33 32 29 32 26 24 37 42 57 76 67 82 83 84 74 77 76 74 83 81 81 72 69 69 63 64 60 58 66 74 71
38 35 33 30 30 33 35 38 39 41 36 34 30 26 27 43 62 69 83 90 90 84 85 81 79 86 86 78 69 65 63 62 62 61 56 68 79 79
39 36 33 32 31 32 35 40 47 47 43 38 31 36 49 60 57 78 84 85 89 83 82 85 85 92 93 81 69 62 64 63 59 57 60 74 81 85
38 36 34 34 35 41 47 47 47 48 50 50 45 42 57 67 77 83 87 90 87 80 79 90 93 96 94 79 68 64 62 62 58 59 69 83 84 82
40 39 38 40 44 43 40 38 41 45 57 59 58 60 66 73 82 88 89 88 84 74 86 93 96 98 89 78 73 67 69 66 63 65 74 82 83 85
44 42 42 49 43 37 31 35 41 50 53 72 71 71 76 81 83 87 86 84 80 81 87 94 97 97 90 82 77 73 71 72 70 78 85 87 84 76
46 46 51 49 41 35 35 36 39 45 57 64 72 87 88 88 87 88 88 87 84 87 90 96 97 96 88 80 81 81 76 75 76 85 86 83 76 80
54 52 50 45 43 41 39 38 34 37 46 59 68 90 96 87 87 89 89 89 85 89 93 98 96 94 86 80 84 79 76 76 79 87 87 86 79 78
53 50 50 48 46 44 41 38 37 34 35 45 64 74 85 89 89 94 99 90 89 92 96 98 95 91 87 85 85 76 72 72 83 91 91 89 83 81
49 50 49 49 46 43 42 41 39 38 38 40 55 71 80 85 91 94 95 92 93 96 98 98 96 92 89 89 83 71 68 77 84 93 92 90 85 83
53 50 48 45 44 44 42 40 42 44 45 48 50 71 82 90 94 96 98 98 97 97 97 98 96 92 89 89 77 73 74 77 84 91 94 92 88 83
50 46 45 45 44 43 43 43 44 45 50 53 53 61 85 91 98 98 99 99 99 98 98 98 95 93 89 89 78 77 74 76 83 94 96 98 95 90